Weather History for Kenosha, WI

Change the Weather History Date:

Monday, January 21, 2013

  Actual Average Record
Temperature  
Mean Temperature 6 °F -  
Max Temperature 12 °F 31 °F 55 °F (1957)
Min Temperature 0 °F 18 °F -23 °F (1984)
Degree Days  
Heating Degree Days 58    
Moisture  
Dew Point -5 °F    
Average Humidity 59    
Maximum Humidity 73    
Minimum Humidity 46    
Precipitation  
Precipitation 0.00 in - - ()
Sea Level Pressure  
Sea Level Pressure 30.18 in    
Wind  
Wind Speed 13 mph (WNW)    
Max Wind Speed 22 mph    
Max Gust Speed 31 mph    
Visibility 8 miles    
Events Snow    
Averages and records for this station are not official NWS values.
T = Trace of Precipitation, MM = Missing Value Source: NWS Daily Summary

Daily Weather History Graph

Daily Weather History Graph

Search for Another Location

Airport:

Trip Planner

Search our weather history database for the weather conditions in past years. The results will help you decide how hot, cold, wet, or windy it might be!

Date:

Astronomy

Jan. 21, 2013 Rise Set
Actual Time 7:15 AM CST 4:51 PM CST
Civil Twilight 6:44 AM CST 5:22 PM CST
Nautical Twilight 6:10 AM CST 5:56 PM CST
Astronomical Twilight 5:36 AM CST 6:30 PM CST
Moon 12:30 PM CST (1/21) 2:43 AM CST (1/21)
Length of Visible Light 10h 37m
Length of Day
9h 36m
Waxing Gibbous, 75% of the Moon is Illuminated
Jan 21
Waxing Gibbous
Jan 26
Full
Feb 3
Last Quarter
Feb 10
New
Feb 17
First Quarter

Hourly Weather History & Observations

Time (CST) Temp. Windchill Dew Point Humidity Pressure Visibility Wind Dir Wind Speed Gust Speed Precip Events Conditions
12:53 AM 12.0 °F 1.5 °F -0.9 °F 56% 30.19 in 10.0 mi West 6.9 mph - N/A   Mostly Cloudy
1:53 AM 10.9 °F -4.1 °F -0.9 °F 59% 30.18 in 10.0 mi WNW 12.7 mph - N/A   Mostly Cloudy
3:53 AM 10.9 °F -4.1 °F 1.0 °F 64% 30.14 in 8.0 mi West 12.7 mph - N/A   Overcast
4:13 AM 10.4 °F -5.4 °F 1.4 °F 67% 30.09 in 8.0 mi West 13.8 mph 20.7 mph N/A   Overcast
4:39 AM 8.6 °F -7.0 °F -0.4 °F 67% 30.09 in 10.0 mi WNW 12.7 mph - N/A   Scattered Clouds
4:53 AM 9.0 °F -5.9 °F -0.9 °F 64% 30.14 in 10.0 mi WNW 11.5 mph - N/A   Clear
5:53 AM 9.0 °F -7.9 °F -4.0 °F 56% 30.15 in 10.0 mi WNW 15.0 mph 25.3 mph N/A   Mostly Cloudy
6:53 AM 7.0 °F -5.7 °F -5.1 °F 58% 30.15 in 10.0 mi NW 8.1 mph - N/A   Overcast
7:53 AM 7.0 °F -5.7 °F -4.0 °F 61% 30.17 in 7.0 mi WNW 8.1 mph - N/A   Overcast
8:33 AM 8.6 °F -6.3 °F -0.4 °F 67% 30.12 in 1.8 mi WNW 11.5 mph - 0.00 in Snow Light Snow
8:44 AM 6.8 °F -7.8 °F -0.4 °F 72% 30.12 in 0.5 mi WNW 10.4 mph - 0.00 in Snow Snow
8:53 AM 7.0 °F -10.4 °F -0.0 °F 73% 30.18 in 0.2 mi WNW 15.0 mph 23.0 mph 0.00 in Snow Heavy Snow
9:00 AM 6.8 °F -11.8 °F -0.4 °F 72% 30.13 in 0.2 mi WNW 17.3 mph 25.3 mph 0.00 in Snow Heavy Snow
9:07 AM 6.8 °F -11.3 °F -0.4 °F 72% 30.13 in 1.0 mi WNW 16.1 mph 25.3 mph 0.00 in Snow Light Snow
9:13 AM 6.8 °F -12.4 °F -0.4 °F 72% 30.13 in 6.0 mi West 18.4 mph - 0.00 in Snow Light Snow
9:41 AM 6.8 °F -11.3 °F -5.8 °F 56% 30.14 in 8.0 mi WNW 16.1 mph 27.6 mph 0.00 in Snow Light Snow
9:53 AM 7.0 °F -11.6 °F -4.0 °F 61% 30.19 in 8.0 mi WNW 17.3 mph 24.2 mph 0.00 in   Mostly Cloudy
10:53 AM 7.0 °F -11.6 °F -2.9 °F 64% 30.20 in 3.0 mi NW 17.3 mph 25.3 mph 0.00 in Snow Light Snow
11:04 AM 6.8 °F -12.4 °F -5.8 °F 56% 30.14 in 3.0 mi WNW 18.4 mph 26.5 mph 0.00 in Snow Light Snow
11:53 AM 8.1 °F -12.2 °F -7.1 °F 50% 30.18 in 3.0 mi WNW 21.9 mph 31.1 mph 0.00 in   Haze
12:00 PM 8.6 °F -8.9 °F -7.6 °F 48% 30.13 in 10.0 mi WNW 16.1 mph 28.8 mph N/A   Mostly Cloudy
12:53 PM 8.1 °F -11.7 °F -8.0 °F 48% 30.18 in 10.0 mi West 20.7 mph 28.8 mph N/A   Partly Cloudy
1:53 PM 8.1 °F -9.0 °F -8.0 °F 48% 30.18 in 10.0 mi WNW 15.0 mph 26.5 mph N/A   Mostly Cloudy
2:53 PM 8.1 °F -9.0 °F -9.0 °F 46% 30.19 in 10.0 mi WNW 15.0 mph 25.3 mph N/A   Mostly Cloudy
3:53 PM 7.0 °F -13.6 °F -9.0 °F 48% 30.20 in 10.0 mi WNW 21.9 mph 27.6 mph N/A   Mostly Cloudy
4:53 PM 5.0 °F -11.6 °F -9.9 °F 50% 30.21 in 10.0 mi WNW 12.7 mph 21.9 mph N/A   Clear
5:53 PM 5.0 °F -10.8 °F -9.0 °F 52% 30.23 in 10.0 mi West 11.5 mph 24.2 mph N/A   Scattered Clouds
6:53 PM 3.9 °F -11.3 °F -9.9 °F 53% 30.24 in 10.0 mi WNW 10.4 mph - N/A   Clear
7:53 PM 3.0 °F -11.5 °F -9.9 °F 55% 30.26 in 10.0 mi WNW 9.2 mph - N/A   Clear
8:53 PM 3.0 °F -12.5 °F -9.9 °F 55% 30.28 in 10.0 mi WNW 10.4 mph - N/A   Overcast
9:19 PM 1.4 °F -16.1 °F -9.4 °F 61% 30.22 in 10.0 mi WNW 12.7 mph - N/A   Mostly Cloudy
9:53 PM 1.9 °F -12.9 °F -9.0 °F 60% 30.28 in 10.0 mi WNW 9.2 mph - N/A   Overcast
10:53 PM 1.0 °F -14.9 °F -11.0 °F 57% 30.30 in 10.0 mi NW 10.4 mph - N/A   Scattered Clouds
11:53 PM -0.0 °F -18.0 °F -11.9 °F 57% 30.30 in 10.0 mi NW 12.7 mph 18.4 mph N/A   Clear